Location: Napa Junction
(38.1874°N, 122.2508°W)
Time: 16:19:36
(UTC+00:00)

ARGOS - Pass Details

Date: 08 September 2024
Orbit: 818 x 834 km, 98.4° (Epoch: 07 October)

Event Time Altitude Azimuth Distance (km) Brightness Sun altitude
Rises 12:50:49 0° 14° (NNE) 3,355 6.8 -11.3°
Reaches altitude 10° 12:53:10 10° 15° (NNE) 2,419 6.0 -10.8°
Maximum altitude 12:58:32 80° 102° (ESE) 836 3.3 -9.8°
Drops below altitude 10° 13:03:52 10° 190° (S) 2,407 5.3 -8.8°
Sets 13:06:12 0° 192° (SSW) 3,337 6.1 -8.4°
